Other Surface Observations
Issued by NWS Charleston, SC

Home | Current Version | Previous Version | Text Only | Print | Product List | Glossary On
Versions: 1 2 3 4 5 6 7 8 9 10 11 12 13 14 15 16 17 18 19 20 21 22 23 24 25 26 27 28 29 30 31 32 33 34 35 36 37 38 39 40 41 42 43 44 45 46 47 48 49 50
523
SXUS52 KCHS 202127
OSOCHS

MARINE OBSERVATIONS
NATIONAL WEATHER SERVICE CHARLESTON SC
400 PM EST MON NOV 20 2017

...DOWNTOWN CHARLESTON AND HARBOR...

CITY           SKY/WX    TMP DP  RH WIND       PRES   REMARKS
WATERFRONT PRK NOT AVBL

...LAKE MOULTRIE...

CITY           SKY/WX    TMP DP  RH WIND       PRES   REMARKS
PINOPOLIS        N/A     57  37  47 VRB2      30.14S

...LAKE AND SUPPLEMENTAL COASTAL OBSERVATIONS...

STATION/POSITION TIME  TEMP    WIND        PRES    WAVE   SWELL
                       AIR SEA DIR/SP/G            HT/PER HT/PER/DIR
                 (UTC) (F)     (DEG/KT/KT) (MB)    (FT/S) (FT/S/D)
FORT PULASKI     2100   56 61   60/ 11/ 14 1023.8
SAPELO ISLAND    2100   63      50/ 10     1022.0
WINYAH BAY       2045   56     110/  4     1024.0S
LAKE MURRAY      2120   62     140/  4/  5 1022.0F
ACE BASIN NERRS  2045   58     110/  3     1023.0S


...C-MAN AND BUOY OBSERVATIONS...

STATION/POSITION TIME  TEMP    WIND        PRES    WAVE   SWELL
                       AIR SEA DIR/SP/G            HT/PER HT/PER/DIR
                 (UTC) (F)     (DEG/KT/KT) (MB)    (FT/S) (FT/S/D)
BUOY 41004       2110   60 73   50/ 14/ 17 1023.1
BUOY 41008       2050   63 68   70/ 14/ 16 1022.1R   3/ 5   2/100/ 8
FOLLY BEACH CMAN 2100   56      70/ 10/ 11 1024.3F
CAPERS NS BUOY   2108   55 62   80/ 12/ 17 1023.5F
FRIPP NS BUOY    2108   56 61   60/ 12/ 17 1022.9R
5E ST. MARYS GA  2100      67                N/A     4/ 5


STATION/POSITION TIME  TEMP    WIND        PRES    WAVE   SWELL
                       AIR SEA DIR/SP/G            HT/PER HT/PER/DIR
                 (UTC) (F)     (DEG/KT/KT) (MB)    (FT/S) (FT/S/D)
FRYING PAN BUOY  2110   56 69   20/  8/ 12 1024.0
BUOY 41025       2110   53 66  350/ 10/ 14 1024.2
CAPE LOOKOUT NC  2100          360/  4/  4 1024.3R
BUOY 41002       2050   67 77   40/ 14/ 19 1021.7R   6/ 8   5/ 8
BUOY 41010       NOT AVBL
ST AUGUSTINE FL  2100   70 68   90/ 13/ 15 1020.6F

$$




USA.gov is the U.S. government's official web portal to all federal, state and local government web resources and services.